Flag for Germany Weather past 2 weeks in Idar-Oberstein, Rhineland-Palatinate, Germany

Now
36 °F

Passing clouds.


Feels Like: 25 °F
Forecast: 33 / 42 °F
Wind: 17 mph from West

Location: Hahn

Current Time: Mar 4, 2015 at 12:36:20 AM

Latest Report: Mar 4, 2015 at 12:20 AM


Visibility: N/A

Pressure: 30.09 "Hg

Humidity: 93%

Dew point: 34 °F

Location of Idar-ObersteinLocation

Historic Weather in Idar-Oberstein — Graph

°F

Idar-Oberstein temperature yesterday

Maximum temperature yesterday: 45 °F (at 1:50 PM)
Minimum temperature yesterday: 32 °F (at 2:20 AM)
Average temperature yesterday: 37 °F

Past Weeks' High & Low Weather Summary

 TemperatureHumidityPressure
High46 °F (Feb 20, 2:50 PM)100% (Feb 17, 1:20 AM)30.69 "Hg (Feb 17, 1:20 AM)
Low27 °F (Feb 19, 3:20 AM)49% (Mar 2, 2:50 PM)29.39 "Hg (Feb 21, 6:20 AM)
Average35 °F87%29.94 "Hg
* Reported Feb 16 11:20 PM — Mar 3 11:20 PM, Idar-Oberstein, Weather by CustomWeather, © 2015

Note: Actual official high and low records may vary slightly from our data, if they occured in-between our weather recording intervals... More about our weather records

Advertising

Idar-Oberstein weather history for previous 24 hours

 ConditionsComfort  
Time TempWeatherWind HumidityBarometerVisibility
11:20 PM
Tue, Mar 3
36 °FPartly cloudy.20 mph93%30.07 "HgN/A
10:20 PM36 °FPartly cloudy.16 mph93%30.07 "HgN/A
9:50 PM34 °FPartly cloudy.12 mph100%30.07 "HgN/A
9:20 PM34 °FLight snow. Partly cloudy.12 mph93%30.07 "HgN/A
8:20 PM34 °FLight snow. Passing clouds.10 mph100%30.04 "HgN/A
7:50 PM34 °FSnow showers. Passing clouds.15 mph100%30.04 "Hg1 mi
7:20 PM36 °FSnow showers. Partly cloudy.18 mph93%30.04 "Hg4 mi
7:03 PM41 °FSnow showers. Passing clouds.17 mph76%30.01 "Hg2 mi
6:50 PM43 °FPassing clouds.16 mph66%30.01 "HgN/A
6:20 PM43 °FLight rain. Passing clouds.15 mph61%29.98 "HgN/A
5:50 PM43 °FScattered clouds.14 mph61%30.01 "HgN/A
5:20 PM43 °FScattered clouds.17 mph57%30.01 "HgN/A
4:50 PM43 °FScattered clouds.16 mph57%30.01 "HgN/A
4:20 PM43 °FScattered clouds.17 mph57%30.01 "HgN/A
3:50 PM43 °FScattered clouds.18 mph57%30.01 "HgN/A
3:20 PM45 °FScattered clouds.21 mph53%30.01 "HgN/A
2:50 PM45 °FPartly sunny.18 mph61%30.04 "HgN/A
2:20 PM45 °FScattered clouds.16 mph57%30.04 "HgN/A
1:50 PM45 °FPassing clouds.20 mph57%30.04 "HgN/A
1:20 PM43 °FScattered clouds.18 mph61%30.04 "HgN/A
12:54 PM43 °FScattered clouds.17 mph61%30.07 "HgN/A
12:20 PM43 °FBroken clouds.17 mph61%30.07 "HgN/A
11:50 AM41 °FScattered clouds.18 mph61%30.09 "HgN/A
11:20 AM41 °FPassing clouds.16 mph61%30.09 "HgN/A
10:50 AM39 °FPassing clouds.12 mph65%30.09 "HgN/A
10:20 AM37 °FPassing clouds.12 mph70%30.09 "HgN/A
9:50 AM36 °FPassing clouds.12 mph81%30.09 "HgN/A
9:20 AM34 °FPassing clouds.12 mph87%30.09 "HgN/A
8:50 AM34 °FPassing clouds.10 mph81%30.09 "HgN/A
8:20 AM34 °FPassing clouds.10 mph81%30.09 "HgN/A
7:50 AM32 °FPassing clouds.10 mph87%30.09 "HgN/A
7:20 AM32 °FScattered clouds.14 mph87%30.07 "HgN/A
6:50 AM32 °FClear.16 mph87%30.07 "Hg10 mi
6:20 AM32 °FClear.17 mph87%30.07 "Hg10 mi
5:50 AM32 °FPassing clouds.15 mph87%30.07 "HgN/A
5:20 AM32 °FPassing clouds.15 mph87%30.07 "HgN/A
4:50 AM32 °FPassing clouds.14 mph87%30.07 "HgN/A
4:20 AM34 °FPassing clouds.15 mph81%30.07 "HgN/A
3:50 AM32 °FPassing clouds.13 mph87%30.07 "HgN/A
3:20 AM32 °FPassing clouds.9 mph80%30.07 "HgN/A
2:50 AM32 °FClear.12 mph80%30.07 "Hg10 mi
2:20 AM32 °FPassing clouds.13 mph80%30.07 "HgN/A
1:50 AM34 °FPassing clouds.10 mph75%30.07 "HgN/A
1:20 AM34 °FPassing clouds.10 mph81%30.07 "HgN/A
12:50 AM34 °FPassing clouds.10 mph75%30.04 "HgN/A
12:20 AM34 °FClear.13 mph75%30.04 "Hg10 mi
Weather by CustomWeather, © 2015

See weather overviewHow to use our weather pages